Flag for U.S.A. Weather past 2 weeks in Sioux Falls, South Dakota, U.S.A.

Now
22 °F

Clear.


Feels Like: 9 °F
Forecast: 18 / 40 °F
Wind: 14 mph from Southwest

Location: Foss Field

Current Time: Mar 6, 2015 at 12:29:04 AM

Latest Report: Mar 5, 2015 at 11:56 PM


Visibility: 10 mi

Pressure: 30.23 "Hg

Humidity: 55%

Dew point: 8 °F

Location of Sioux FallsLocation

Historic Weather in Sioux Falls — Graph

°F

Sioux Falls temperature yesterday

Maximum temperature yesterday: 29 °F (at 3:56 PM)
Minimum temperature yesterday: -9 °F (at 3:56 AM)
Average temperature yesterday: 11 °F

Past Weeks' High & Low Weather Summary

 TemperatureHumidityPressure
High45 °F (Feb 20, 1:56 PM)96% (Mar 3, 7:04 AM)30.88 "Hg (Mar 3, 7:04 AM)
Low-11 °F (Feb 27, 5:56 AM)32% (Feb 23, 2:56 PM)29.66 "Hg (Mar 3, 7:04 AM)
Average14 °F67%30.30 "Hg
* Reported Feb 18 10:56 PM — Mar 5 10:56 PM, Sioux Falls, Weather by CustomWeather, © 2015

Note: Actual official high and low records may vary slightly from our data, if they occured in-between our weather recording intervals... More about our weather records

Advertising

Sioux Falls weather history for previous 24 hours

 ConditionsComfort  
Time TempWeatherWind HumidityBarometerVisibility
10:56 PM
Thu, Mar 5
22 °FClear.16 mph55%30.25 "Hg10 mi
9:56 PM22 °FClear.15 mph52%30.28 "Hg10 mi
8:56 PM24 °FClear.14 mph48%30.30 "Hg10 mi
7:56 PM26 °FClear.15 mph42%30.32 "Hg10 mi
6:56 PM27 °FPassing clouds.13 mph41%30.34 "Hg10 mi
5:56 PM28 °FPassing clouds.13 mph39%30.36 "Hg10 mi
4:56 PM28 °FPassing clouds.10 mph39%30.37 "Hg10 mi
3:56 PM29 °FPassing clouds.15 mph34%30.38 "Hg10 mi
2:56 PM26 °FSunny.15 mph42%30.40 "Hg10 mi
1:56 PM23 °FSunny.10 mph46%30.44 "Hg10 mi
12:56 PM20 °FSunny.12 mph48%30.49 "Hg10 mi
11:56 AM16 °FSunny.12 mph56%30.53 "Hg10 mi
10:56 AM12 °FSunny.8 mph58%30.55 "Hg10 mi
9:56 AM6 °FSunny.9 mph66%30.57 "Hg10 mi
8:56 AM2 °FSunny.8 mph69%30.58 "Hg10 mi
7:56 AM-4 °FSunny.No wind83%30.57 "Hg10 mi
6:56 AM-8 °FPassing clouds.No wind74%30.57 "Hg10 mi
5:56 AM-9 °FClear.No wind78%30.57 "Hg10 mi
4:56 AM-9 °FClear.No wind78%30.55 "Hg10 mi
3:56 AM-9 °FClear.No wind74%30.55 "Hg10 mi
2:56 AM-8 °FClear.3 mph78%30.55 "Hg10 mi
1:56 AM-7 °FClear.3 mph79%30.55 "Hg10 mi
12:56 AM-6 °FClear.3 mph78%30.55 "Hg10 mi
Weather by CustomWeather, © 2015

See weather overviewHow to use our weather pages